Regional Weather Roundup
Issued by NWS

Home | Current Version | Previous Version | Graphics & Text | Print | Product List | Glossary On
Versions: 1 2 3 4 5 6 7 8 9 10 11 12 13 14 15 16 17 18 19 20 21 22 23 24 25 26 27 28 29 30 31 32 33 34 35 36 37 38 39 40 41 42 43 44 45 46 47 48 49 50
000
ASUS45 KCYS 182210
RWRWY

WYOMING REGIONAL WEATHER ROUNDUP
NATIONAL WEATHER SERVICE CHEYENNE WY
300 PM MST SAT NOV 18 2017

NOTE:  "FAIR" INDICATES FEW OR NO CLOUDS BELOW 12,000 FEET
WITH NO SIGNIFICANT WEATHER AND/OR OBSTRUCTIONS TO VISIBILITY.

WYZ001-182300-
YELLOWSTONE NATIONAL PARK

CITY           SKY/WX    TMP DP  RH WIND       PRES   REMARKS
LK YELLOWSTONE   N/A     19  13  77 CALM      30.29R
W YELLOWSTONE  NOT AVBL

$$
WYZ002>013-054>058-071-098>099-182300-
NORTHERN WYOMING

CITY           SKY/WX    TMP DP  RH WIND       PRES   REMARKS
JACKSON          N/A     29  19  66 S17         N/A  WCI  17
CODY           FAIR      40  14  34 W12G22    30.15S WCI  33
GREYBULL       FAIR      43  12  28 S6        30.17F
WORLAND        FAIR      42  12  29 E5        30.17S
SHERIDAN       FAIR      43  16  33 SE3       30.13S
BUFFALO        FAIR      34  12  40 SW3       30.12F
GILLETTE       FAIR      41  13  31 NW9       30.13S
HULETT         CLOUDY    37  18  44 NW9       30.13R WCI  31
NEWCASTLE      FAIR      41  10  28 NW18G24   30.15R

$$
WYZ014>020-022>026-101>103-182300-
CENTRAL WYOMING

CITY           SKY/WX    TMP DP  RH WIND       PRES   REMARKS
BIG PINEY      FAIR      26  13  57 NW3       30.30F
PINEDALE       FAIR      30  10  43 NW12      30.30R WCI  21
DUBOIS         FAIR      28  14  54 NW21G28   30.19R WCI  15
LANDER         FAIR      44   3  18 E5        30.13F
RIVERTON       FAIR      39  16  39 E7        30.15F WCI  34
CASPER         FAIR      34  22  61 SW20      30.17F WCI  23
DOUGLAS        FAIR      37  25  61 W9        30.16S WCI  30

$$
WYZ021-027>030-104>119-182300-
SOUTHERN WYOMING

CITY           SKY/WX    TMP DP  RH WIND       PRES   REMARKS
EVANSTON       FAIR      24  19  81 SW6       30.34F WCI  17
FORT BRIDGER   FAIR      27  18  70 W7        30.37F WCI  19
ROCK SPRINGS   FAIR      25  15  66 W25       30.31F WCI   9
DIXON          FAIR      29  17  61 SW9       30.38F WCI  21
RAWLINS        FAIR      27  19  72 SW15G25   30.27S WCI  15
SARATOGA       FAIR      28  14  54 N8        30.28R WCI  20
LARAMIE        FAIR      31  14  49 W13       30.18R WCI  21
CHEYENNE       FAIR      38  14  37 W18G28    30.17S WCI  28
TORRINGTON     FAIR      43  17  35 W12       30.16F
PINE BLUFFS    FAIR      39  14  35 MISG      30.18F

$$



USA.gov is the U.S. government's official web portal to all federal, state and local government web resources and services.